Location: Hicks
(37.9226°N, 89.9954°W)
Time: 08:22:26
(UTC+00:00)

Cosmos 1898 Rocket - Pass Details

Date: 14 December 2025
Orbit: 749 x 779 km, 74.0° (Epoch: 24 January)

Event Time Altitude Azimuth Distance (km) Brightness Sun altitude
Rises 23:06:26 0° 178° (S) 3,178 7.0 -5.2°
Reaches altitude 10° 23:08:52 10° 171° (S) 2,258 6.2 -5.6°
Maximum altitude 23:13:39 41° 102° (ESE) 1,072 3.9 -6.5°
Drops below altitude 10° 23:18:29 10° 33° (NNE) 2,279 5.5 -7.3°
Enters shadow 23:20:25 - 27° (NNE) 3,009 6.1 -7.7°
